Hourly Data Report for July 08, 2021

PRINCE RUPERT
BRITISH COLUMBIA
Current Station Operator: NAVCAN

54°17'10.000" N
130°26'41.000" W
35.40 m
1066482
71022
YPR

Download Data

Hourly Data (July 2021)
Hourly Data Report for July 8, 2021
TIME
LST
Temp Definition
°C
Dew Point Definition
°C
Rel Hum Definition
%
Precip. Amount Definition
mm

Wind Dir Definition
10's deg

Wind Spd Definition
km/h
Visibility Definition
km
Stn Press Definition
kPa
Hmdx Definition


Wind Chill Definition


Weather Definition


00:00 10.9 10.3 96 0.0   0 16.1 101.30     LegendNANA
01:00 11.1 10.5 96 0.0   0 4.8 101.33     Fog
02:00 10.9 10.5 97 0.0 28 5 2.4 101.35     Fog
03:00 10.7 10.1 96 0.0 LegendMM 4 8.1 101.35     Fog
04:00 10.9 10.3 96 0.0 25 4 16.1 101.37     LegendNANA
05:00 11.0 10.4 96 0.0   0 16.1 101.37     LegendNANA
06:00 11.5 10.7 95 0.0   0 16.1 101.36     LegendNANA
07:00 11.7 10.8 94 0.2 23 5 16.1 101.40     LegendNANA
08:00 12.3 10.7 90 0.0 LegendMM 4 16.1 101.41     LegendNANA
09:00 12.8 10.4 85 0.0 LegendMM 4 16.1 101.41     LegendNANA
10:00 13.8 11.0 83 0.0 25 9 16.1 101.43     LegendNANA
11:00 14.7 10.8 77 0.0 29 9 16.1 101.46     LegendNANA
12:00 15.1 11.0 76 0.0 29 9 16.1 101.49     LegendNANA
13:00 16.5 10.4 67 0.0 30 5 16.1 101.48     LegendNANA
14:00 16.1 10.4 69 0.0 32 9 16.1 101.46     LegendNANA
15:00 16.0 10.8 71 0.0 28 17 16.1 101.47     LegendNANA
16:00 16.9 10.6 66 0.0 32 9 16.1 101.46     LegendNANA
17:00 16.1 10.6 69 0.0 28 17 16.1 101.44     LegendNANA
18:00 16.7 10.8 68 0.0 32 9 16.1 101.42     LegendNANA
19:00 16.1 10.6 70 0.0 32 5 16.1 101.42     LegendNANA
20:00 15.2 11.2 77 0.0 27 5 16.1 101.44     LegendNANA
21:00 13.1 11.2 88 0.0 LegendMM 4 16.1 101.47     LegendNANA
22:00 12.9 11.0 88 0.0 28 11 16.1 101.52     LegendNANA
23:00 12.5 11.1 91 0.0 LegendMM 4 16.1 101.51     LegendNANA

Notes on Data Quality.

Legend

  • E = Estimated
  • M = Missing
  • NA = Not Available*
  • [empty] = Indicates an unobserved value
Date modified: